sat.trackr.live / text

‹ back to catalog

ASTRA 2F

NORAD 38778 · 2012-051A

PAYLOAD ACTIVE UNKNOWN

§ Identity

Operator
Country
SES
Launch date
2012-09-28
Launch site
FRGUI
Launch vehicle
Mass (kg)
RCS (m²)
17.60

Purposes: comms

External: N2YO · Heavens-Above · Gunter

§ Orbital elements

Epoch: 2026-09-13T02:00:42.905952Z

Period
1,436.08 min
Inclination
0.0669°
Eccentricity
0.0004211
Mean motion
1.00273031 rev/d
Perigee alt
35,768.5 km
Apogee alt
35,804.0 km
Semi-major
42,164.4 km
B*
0.0000e+0
RAAN
257.2905°
Arg perigee
307.4411°
Mean anomaly
205.7057°
Rev number
4,201

§ Raw data

ASTRA 2F1 38778U 12051A   26256.08382993  .00000138  00000+0  00000+0 0  99952 38778   0.0669 257.2905 0004211 307.4411 205.7057  1.00273031 42014

JSON: /api/v1/satellites/38778 · /tle

For live sub-satellite position, see the globe view (requires WebGL).

§ Visibility from observer

Set your observer location to see the next 7 days of passes ≥ 10°. The values pass through the URL so the page stays shareable.

No JS? Fill the form by hand. The geolocation button needs JavaScript.